Date,TemperatureHighF,TemperatureAvgF,TemperatureLowF,DewpointHighF,DewpointAvgF,DewpointLowF,HumidityHigh,HumidityAvg,HumidityLow,PressureMaxIn,PressureMinIn,WindSpeedMaxMPH,WindSpeedAvgMPH,GustSpeedMaxMPH,PrecipitationSumIn
2013-5-1,81.3,73.1,69.0,75.0,70.7,67.0,96,92,81,30.02,29.90,7,1,0,0.83
2013-5-2,74.9,69.9,67.6,71.0,68.4,66.0,97,94,80,29.95,29.81,4,0,0,0.57
2013-5-3,84.3,74.5,64.4,73.0,68.3,64.0,97,82,61,29.84,29.72,7,0,0,0.01
2013-5-4,82.4,76.5,72.3,72.0,68.5,61.0,86,76,65,29.84,29.71,9,2,0,0.00
2013-5-5,78.9,73.8,69.2,67.0,62.0,58.0,83,67,52,29.98,29.80,6,1,0,0.00
2013-5-6,81.3,70.7,67.6,69.0,55.1,-99.9,81,65,60,30.03,29.95,4,-51,0,0.00
2013-5-7,80.9,73.3,62.7,67.0,63.2,59.0,87,71,59,30.08,29.99,7,1,0,0.00
2013-5-8,82.4,73.3,62.5,67.0,63.5,60.0,92,73,55,30.15,30.05,6,0,0,0.00
2013-5-9,86.6,68.6,63.8,68.8,48.0,-99.9,89,62,46,30.15,30.07,4,-102,1,0.00
2013-5-10,72.8,19.2,68.6,67.0,-55.1,-99.9,86,22,80,30.14,30.02,0,-728,0,0.00
2013-5-11,89.7,68.9,73.3,79.0,48.1,-99.9,96,69,68,30.07,30.00,6,-156,0,0.00
2013-5-12,87.5,80.4,73.5,77.0,74.8,72.0,96,83,70,30.06,29.93,7,1,0,0.00
2013-5-13,86.8,79.1,72.1,74.0,71.3,64.0,96,78,63,30.12,30.01,5,0,2,0.00
2013-5-14,90.0,77.3,66.6,65.0,60.1,54.0,79,57,37,30.18,30.08,7,1,0,0.00
2013-5-15,88.5,72.1,64.0,68.0,52.9,-99.9,82,59,40,30.18,30.07,4,-58,0,0.00
2013-5-16,87.8,77.0,65.5,68.0,65.6,62.0,90,69,48,30.11,30.01,7,1,0,0.00
2013-5-17,90.8,79.5,68.1,72.0,67.7,63.0,91,69,41,30.08,30.02,4,0,0,0.00
2013-5-18,90.8,79.4,69.7,76.0,70.3,-99.9,95,76,57,30.10,30.02,5,-10,0,0.00
2013-5-19,90.2,68.7,72.5,75.0,45.5,-99.9,93,64,58,30.10,29.97,6,-156,0,0.00
2013-5-20,91.2,54.8,71.4,77.0,18.7,-99.9,94,55,54,30.06,29.96,11,-312,0,0.09
2013-5-21,91.7,78.6,69.5,75.0,71.6,68.0,96,81,51,30.01,29.91,11,1,0,0.09
2013-5-22,89.1,79.8,69.9,78.0,73.6,69.0,97,82,65,29.96,29.89,6,0,0,0.01
2013-5-23,87.1,80.4,72.6,76.0,73.2,70.0,95,79,66,30.04,29.93,5,0,0,0.00
2013-5-24,91.5,82.3,74.6,77.0,73.3,68.0,94,75,49,30.07,29.97,4,0,0,0.00
2013-5-25,94.8,81.8,71.6,76.0,69.6,67.0,92,69,42,30.15,30.03,7,2,0,0.00
2013-5-26,91.7,78.8,68.3,69.0,66.0,64.0,89,67,40,30.17,30.07,8,2,0,0.00
2013-5-27,89.4,76.0,69.9,78.0,70.0,65.0,94,82,58,30.16,30.03,7,1,0,1.21
2013-5-28,87.9,76.0,72.5,77.0,72.6,71.0,96,89,63,30.10,30.02,9,1,0,0.60
2013-5-29,81.3,74.5,71.7,75.0,72.0,70.0,96,91,77,30.07,30.00,12,2,0,0.10
2013-5-30,87.0,77.2,70.7,78.0,73.3,69.0,96,88,71,30.05,29.95,7,2,0,0.46
2013-5-31,90.2,78.3,72.5,77.0,74.1,71.0,97,88,65,30.04,29.98,6,1,0,0.55